Location: Brede
(50.9167°N, 0.6000°E)
Time: 03:32:40
(UTC+00:00)

ERS-2 - Pass Details

Date: 08 August 2020
Orbit: 493 x 498 km, 98.6° (Epoch: 27 September)

Event Time Altitude Azimuth Distance (km) Brightness Sun altitude
Rises 03:09:28 0° 153° (SSE) 2,569 5.6 -11.7°
Reaches altitude 10° 03:11:33 10° 149° (SSE) 1,692 4.7 -11.4°
Maximum altitude 03:15:06 56° 71° (ENE) 600 2.9 -11.0°
Drops below altitude 10° 03:18:43 10° 353° (N) 1,710 5.3 -10.6°
Sets 03:20:49 0° 349° (NNW) 2,599 6.2 -10.4°
